Location: Hameau de la Forge
(49.6488°N, 1.5115°W)
Time: 05:58:51
(UTC+00:00)

Daily predictions for brighter satellites

Satellite Brightness Start Highest point End
(mag) Time Altitude Azimuth Time Altitude Azimuth Time Altitude Azimuth
SL-16 R/B 4.3 03:10:33 21° NE 03:10:33 21° NE 03:14:41 10° E
Cosmos 1980 Rocket 4.3 03:19:58 19° ESE 03:19:58 19° ESE 03:21:38 10° SE
Cosmos 2322 Rocket 4.3 03:19:06 20° NNE 03:19:39 21° NE 03:23:50 10° E
CZ-4C R/B 4.0 03:32:39 27° NNE 03:32:39 27° NNE 03:35:58 10° NE
ATLAS 2AS CENTAUR R/B 3.8 03:31:58 40° N 03:33:19 43° NNE 03:40:17 10° E
SJ 16-02 4.1 03:37:49 15° ESE 03:38:29 16° E 03:41:06 10° ENE
SL-4 R/B 3.9 03:59:44 35° E 03:59:44 35° E 04:02:36 10° E
USA 234 3.7 03:59:27 10° ENE 04:05:42 49° N 04:05:49 49° N
IDEFIX/ARIANE 42P 4.0 04:05:54 10° NNE 04:08:18 28° NNE 04:08:18 28° NNE
Meteor 2-2 Rocket 4.5 04:19:45 58° SSE 04:19:45 58° SSE 04:24:13 10° SSE
Cosmos 2082 Rocket 2.1 04:25:34 80° N 04:25:34 80° N 04:31:03 10° NNE
NOSS 2-2 (D) 4.4 04:28:48 68° NW 04:29:41 84° SW 04:37:33 10° SE
Cosmos 158 Rocket 3.9 04:34:13 72° SSE 04:34:13 72° SSE 04:38:35 10° SSE
Cosmos 1934 Rocket 4.3 04:36:30 49° NW 04:36:30 49° NW 04:41:41 10° N
Cosmos 1833 Rocket 3.1 04:41:03 45° NNW 04:41:03 45° NNW 04:45:33 10° NNE
Lacrosse 5 1.7 04:42:40 77° NNW 04:42:40 77° NNW 04:47:45 10° NE
COSMOS 2455 2.9 04:40:31 41° NNW 04:42:47 79° NE 04:48:47 10° SE
NOSS 3-4 (A) 4.1 04:41:05 30° NNW 04:44:44 63° NE 04:52:13 10° ESE
NOSS 3-4 (C) 4.1 04:41:11 30° NNW 04:44:50 63° NE 04:52:18 10° ESE
MSX 3.7 04:40:01 10° N 04:45:45 69° WNW 04:47:19 48° SW
Cosmos 1447 Rocket 4.4 04:42:39 10° NNW 04:49:00 70° W 04:55:17 10° S
Cosmos 990 Rocket 4.0 04:46:46 23° SSW 04:50:03 77° ESE 04:55:18 10° NNE
CZ-2C R/B 2.2 04:45:39 10° NNE 04:50:35 87° WNW 04:53:05 29° SSW
Cosmos 967 Rocket 4.4 04:48:56 45° SW 04:51:02 78° NW 04:57:31 10° NE
Cosmos 2360 Rocket 3.3 04:49:36 14° NNW 04:54:11 41° NE 04:59:32 10° ESE
ATLAS CENTAUR R/B 4.1 04:50:35 10° SSE 04:54:27 24° ESE 04:58:15 10° ENE
NOSS 3-3 (A) 4.1 04:51:48 25° SSW 04:55:28 76° SE 05:02:11 10° NE
SL-16 R/B 2.2 04:52:28 28° NNW 04:55:34 80° ENE 05:01:15 10° SSE
NOSS 3-3 (C) 4.1 04:51:53 25° SSW 04:55:34 75° SE 05:02:18 10° NE
Meteor 2-20 4.3 04:50:35 10° NNW 04:56:44 70° W 05:02:50 10° S
ASTEX 1 3.3 04:54:08 10° S 04:59:04 66° W 05:04:03 10° N
ADEOS 4.3 04:54:11 10° N 04:57:51 36° NNW 04:57:51 36° NNW
Cosmos 1980 Rocket 3.2 05:01:49 28° SW 05:01:49 28° SW 05:05:07 10° S
Meteor PRIRODA 4.0 04:58:55 10° NNE 05:02:35 64° ESE 05:06:12 10° S
Cosmos 2322 Rocket 2.2 05:00:58 23° NNW 05:04:37 81° ENE 05:10:19 10° SSE
ALOS 3.9 05:00:20 10° NNE 05:04:39 35° E 05:08:56 10° SSE
BREEZE-M DEB (TANK) 4.2 05:05:33 22° S 05:05:33 22° S 05:08:04 10° SE
STARLINK-46 4.1 05:07:08 36° NE 05:07:08 36° NE 05:09:20 10° E
Cosmos 2151 3.3 05:04:10 10° S 05:08:26 67° E 05:12:43 10° NNE
Cosmos 1766 Rocket 3.9 05:05:09 10° S 05:09:25 64° E 05:13:45 10° NNE
Okean 3 Rocket 3.6 05:06:38 10° S 05:11:09 85° E 05:15:40 10° N
Lacrosse 5 rocket 2.3 05:10:58 28° N 05:11:21 29° NNE 05:14:32 10° ENE
H-2A R/B 3.1 05:08:51 10° N 05:12:35 42° NW 05:12:35 42° NW
Cosmos 1408 3.8 05:09:44 10° SSE 05:13:14 42° E 05:16:44 10° NNE
Cosmos 1153 Rocket 4.4 05:09:38 10° SSW 05:15:41 62° WNW 05:21:48 10° N
CZ-4B R/B 4.1 05:11:50 10° N 05:16:17 64° WNW 05:20:42 10° SSW
SJ 16-02 1.2 05:14:55 36° SW 05:16:33 65° WNW 05:20:56 10° NNE
Cosmos 839 Rocket 4.1 05:14:10 29° WSW 05:17:38 58° NW 05:23:44 10° NE
Cosmos 2061 Rocket 4.4 05:12:40 10° S 05:18:51 66° E 05:25:01 10° NNE
COSMO-SKYMED 1 2.4 05:14:33 10° SSE 05:18:54 83° WSW 05:23:14 10° NNW
Shenzhou-11 Module 4.3 05:19:57 14° S 05:19:57 14° S 05:21:01 10° SSE
CZ-4C R/B 3.8 05:17:50 20° NW 05:20:05 25° N 05:25:37 10° NE
Cosmos 2173 Rocket 3.9 05:16:33 10° S 05:22:49 88° W 05:29:03 10° N
Cosmos 1605 Rocket 4.4 05:21:55 24° WSW 05:24:55 37° WNW 05:30:34 10° N
ATLAS 2AS CENTAUR R/B 2.8 05:19:26 21° NW 05:24:57 75° SW 05:32:02 10° SSE
Cosmos 1898 Rocket 3.5 05:21:35 19° SW 05:25:17 57° WNW 05:30:31 10° NNE
Helios 1A Rocket 4.2 05:22:31 10° NNE 05:26:28 44° E 05:30:22 10° S
STARLINK-80 3.4 05:32:25 33° WSW 05:34:01 83° SSE 05:37:52 10° ENE
Cosmos 1937 Rocket 3.4 05:29:22 10° SW 05:34:28 63° WNW 05:39:35 10° NNE
Meteor 1-31 Rocket 3.2 05:31:05 10° N 05:34:38 37° WNW 05:34:49 36° WNW
FENGYUN 3A 4.1 05:30:10 10° NNE 05:35:35 65° ESE 05:40:57 10° S
Cosmos 1606 3.6 05:32:56 10° N 05:36:39 49° ENE 05:40:21 10° SSE
SL-4 R/B 2.5 05:35:21 31° W 05:37:37 67° SSW 05:42:24 10° SE
CZ-4B R/B 3.9 05:32:29 10° NNE 05:37:48 57° ESE 05:43:10 10° S
Cosmos 1892 2.7 05:34:08 10° SSW 05:37:49 50° WNW 05:41:31 10° N
Cosmos 2333 Rocket 3.6 05:32:34 10° NNW 05:37:52 35° NE 05:43:08 10° ESE
METEOR-M 4.4 05:33:43 10° NNE 05:39:05 72° ESE 05:44:24 10° S
COBE Rocket 4.4 05:34:34 10° SSW 05:39:22 39° W 05:44:07 10° NNW
Cosmos 1484 Rocket 2.8 05:36:52 10° N 05:40:50 62° WNW 05:44:47 10° SSW
BREEZE-M DEB (TANK) 3.5 05:40:40 26° SW 05:41:34 31° SSW 05:44:01 10° SE
Cosmos 2058 3.7 05:41:51 29° WNW 05:41:55 29° WNW 05:45:38 10° N
CZ-4B R/B 3.3 05:39:37 10° N 05:42:46 31° WNW 05:42:46 31° WNW
Cosmos 2228 Rocket 3.8 05:39:58 10° N 05:44:31 59° ENE 05:49:03 10° SSE
Cosmos 2219 Rocket 3.5 05:40:24 10° NNW 05:45:39 37° NE 05:50:53 10° ESE
Okean O Rocket 1.9 05:41:20 10° NNE 05:45:41 69° ESE 05:50:00 10° S
USA 116 3.3 05:42:57 10° S 05:46:11 62° WSW 05:49:45 10° NNW
Cosmos 2150 Rocket 4.3 05:41:06 10° SSW 05:46:33 76° ESE 05:51:58 10° NNE
STARLINK-52 3.6 05:46:37 30° WNW 05:47:58 47° N 05:51:23 10° ENE
USA 234 3.7 05:41:49 10° E 05:48:07 52° NNE 05:53:09 17° WNW
Cosmos 2346 Rocket 4.4 05:42:44 10° N 05:48:52 81° W 05:54:55 10° S
IDEFIX/ARIANE 42P 4.2 05:46:54 10° NNW 05:49:05 15° NW 05:49:05 15° NW
STARLINK-60 3.6 05:48:57 29° NW 05:50:16 45° N 05:53:32 10° ENE
Cosmos 1400 Rocket 3.5 05:46:59 10° N 05:51:03 57° ENE 05:55:00 10° SSE
Gbstr 26 Del rocket 2.5 05:51:35 23° WSW 05:53:50 81° NNW 05:57:36 10° ENE
NOAA 6 4.2 05:48:49 10° NNE 05:53:59 76° ESE 05:59:05 10° S
PAYLOAD B 4.2 05:49:16 10° NNE 05:54:48 84° WNW 06:00:18 10° SSW
Cosmos 1825 2.0 05:53:31 10° SSW 05:57:16 81° W 06:01:04 10° N
BREEZE-M DEB (TANK) 4.2 05:50:40 17° WNW 05:59:26 43° SW 06:03:19 10° SSE
STARLINK-48 3.4 05:57:19 17° WSW 06:00:16 86° NNW 06:04:11 10° ENE
STARLINK-43 3.4 05:59:05 21° W 06:01:22 61° NNW 06:05:04 10° ENE
STARLINK-29 3.7 05:59:42 22° WNW 06:01:35 46° N 06:04:58 10° ENE
ADEOS Rocket 4.3 05:54:06 10° SE 06:01:36 55° ENE 06:08:40 10° N
Cosmos 1437 2.6 05:59:35 10° S 06:02:38 81° E 06:05:43 10° NNE
SJ-12 4.1 05:58:55 10° N 06:02:58 51° WNW 06:06:59 10° SSW
Abrixas rocket 4.1 06:00:33 10° SSW 06:03:04 24° SSE 06:05:36 10° E
Cosmos 1151 Rocket 3.4 06:01:04 10° NNW 06:05:11 40° W 06:09:15 10° SSW
STARLINK-35 4.5 06:01:47 10° SW 06:05:48 50° SSE 06:09:49 10° ENE
Cosmos 1459 Rocket 4.2 06:00:31 10° SW 06:06:26 46° WNW 06:12:30 10° N
Cosmos 1328 Rocket 4.1 06:03:02 10° NNW 06:07:01 36° W 06:10:57 10° SSW
SKYMED 2 4.4 06:03:29 10° SSW 06:07:14 28° W 06:11:01 10° NW
STARLINK-51 4.4 06:03:29 10° SW 06:07:30 51° SSE 06:11:33 10° ENE
H-2A R/B 4.4 06:04:07 10° NNE 06:07:35 36° E 06:11:01 10° SSE
Cosmos 1515 Rocket 3.6 06:04:08 10° NNW 06:08:23 54° W 06:12:36 10° S
STARLINK-30 4.4 06:05:08 10° SW 06:09:10 52° SSE 06:13:13 10° ENE
CZ-4B DEB 4.2 06:04:00 10° N 06:09:23 59° WNW 06:14:45 10° SSW
Cosmos 2082 Rocket 3.5 06:07:28 16° WNW 06:10:16 22° NW 06:14:37 10° N
STARLINK-33 4.4 06:06:46 10° SW 06:10:48 54° SSE 06:14:51 10° ENE
SL-16 R/B 4.4 06:07:31 10° N 06:10:55 16° NNE 06:14:18 10° ENE
Cosmos 1725 Rocket 4.0 06:06:01 10° SSW 06:12:15 71° WNW 06:18:35 10° N
STARLINK-50 4.3 06:08:24 10° SW 06:12:27 55° SSE 06:16:31 10° ENE
FALCON 9 DEB 3.7 06:11:38 17° WNW 06:14:00 46° N 06:17:21 10° E
Cosmos 2016 Rocket 4.1 06:08:34 10° SSW 06:14:43 56° WNW 06:20:58 10° N
Cosmos 1743 Rocket 3.4 06:10:58 10° SSW 06:15:19 80° W 06:19:40 10° N
STARLINK-56 4.2 06:11:41 10° SW 06:15:45 57° SSE 06:19:49 10° ENE
Starlink (trailer) 4.2 06:13:30 10° SW 06:17:35 59° SSE 06:21:40 10° ENE
Cosmos 2237 4.3 06:12:34 10° NW 06:18:13 61° WSW 06:23:49 10° SSE
Cosmos 372 Rocket 3.9 06:13:08 10° SW 06:18:15 65° WNW 06:23:22 10° NNE
STARLINK-38 4.2 06:15:01 10° SW 06:19:05 60° SSE 06:23:11 10° ENE
STARLINK-26 4.0 06:15:48 10° SW 06:19:51 66° SSE 06:23:56 10° ENE
SL-27 R/B 4.4 06:20:13 11° NW 06:20:13 11° NW 06:21:04 10° NNW
STARLINK-65 4.1 06:16:42 10° SW 06:20:47 61° SSE 06:24:53 10° ENE
COSMOS 2487 2.6 06:18:29 10° SW 06:21:52 49° WNW 06:25:15 10° NNE
STARLINK-61 3.6 06:19:46 10° WSW 06:23:49 83° SSE 06:27:52 10° ENE
RESURS DK-1 4.1 06:21:28 10° NNW 06:25:08 29° NE 06:28:48 10° ESE
Cosmos 1833 Rocket 4.4 06:22:47 11° WNW 06:25:26 15° NNW 06:28:31 10° N
STARLINK-69 4.0 06:21:37 10° SW 06:25:44 66° SSE 06:29:51 10° ENE
Lacrosse 5 2.6 06:21:53 12° WNW 06:26:13 38° N 06:30:57 10° ENE
STARLINK-66 4.0 06:23:19 10° SW 06:27:26 67° SSE 06:31:34 10° ENE
Cosmos 2298 Rocket 4.2 06:22:23 10° SW 06:27:33 51° WNW 06:32:44 10° NNE
CZ-2C R/B 3.9 06:25:20 10° NNW 06:28:04 15° NW 06:30:46 10° W
COSMOS 2455 4.0 06:23:42 11° WNW 06:28:05 22° WSW 06:32:35 10° SSW
STARLINK-41 4.0 06:24:53 10° SW 06:29:01 68° SSE 06:33:08 10° ENE
Tsikada Rocket 4.3 06:23:26 10° NNW 06:29:36 50° W 06:35:39 10° SSW
COSMOS 2428 3.1 06:24:07 10° NNW 06:29:51 69° ENE 06:35:33 10° SE
STARLINK-64 3.9 06:26:34 10° SW 06:30:41 70° SSE 06:34:49 10° ENE
STARLINK-70 3.9 06:28:12 10° SW 06:32:20 71° SSE 06:36:29 10° ENE
Cosmos 1408 Rocket 4.3 06:29:12 10° SW 06:32:59 30° WNW 06:36:50 10° N
ATLAS CENTAUR R/B 1.7 06:28:12 10° SW 06:33:05 66° NW 06:37:49 10° NE
Cosmos 1238 Rocket 4.0 06:27:15 10° SSW 06:33:49 73° W 06:39:45 10° N
STARLINK-68 3.8 06:29:57 10° WSW 06:34:06 75° SSE 06:38:15 10° ENE
STARLINK-67 4.1 06:32:38 10° W 06:34:45 22° SW 06:36:55 10° SSE
STARLINK-58 3.8 06:31:22 10° WSW 06:35:30 74° SSE 06:39:38 10° ENE
NOSS 3-4 (A) 4.4 06:29:03 10° NW 06:35:33 41° WSW 06:42:36 10° S
Cosmos 1833 4.2 06:30:01 10° SSW 06:35:38 88° WNW 06:41:19 10° NNE
NOSS 3-4 (C) 4.4 06:29:09 10° NW 06:35:40 41° WSW 06:42:43 10° S
Cosmos 1933 4.1 06:32:50 10° NNW 06:36:23 30° W 06:39:55 10° SSW
STARLINK-62 3.8 06:33:15 10° WSW 06:37:24 77° SSE 06:41:33 10° ENE
Cosmos 2360 Rocket 2.7 06:32:54 10° NW 06:38:14 41° WSW 06:43:30 10° S
SL-16 R/B 3.6 06:35:07 10° WNW 06:38:59 19° W 06:42:51 10° SW
STARLINK-63 3.8 06:34:51 10° WSW 06:38:59 77° SSE 06:43:08 10° ENE
Cosmos 1500 Rocket 3.7 06:34:55 10° SSW 06:39:16 52° WNW 06:43:38 10° N
STARLINK 3.9 06:36:19 10° WSW 06:40:27 74° SSE 06:44:36 10° ENE
Cosmos 2237 Rocket 3.4 06:35:26 10° NNW 06:40:46 39° NE 06:46:03 10° ESE
ALOS 3.0 06:37:53 10° N 06:42:01 32° WNW 06:46:08 10° SW
STARLINK-72 3.8 06:38:05 10° WSW 06:42:14 78° SSE 06:46:24 10° ENE
STARLINK-46 2.9 06:39:20 10° WNW 06:42:17 68° SSW 06:45:15 10° ESE
STARLINK-59 3.7 06:41:29 10° WSW 06:45:38 83° SSE 06:49:48 10° ENE
